Location: Albany
(42.6526°N, 73.7562°W)
Time: 10:41:37
(UTC+00:00)

H-2A R/B - Pass Details

Date: 19 November 2019
Orbit: 500 x 543 km, 97.3° (Epoch: 03 December)

Event Time Altitude Azimuth Distance (km) Brightness Sun altitude
Rises 22:38:36 0° 176° (S) 2,662 6.5 -12.8°
Reaches altitude 10° 22:40:44 10° 180° (S) 1,770 5.6 -13.2°
Maximum altitude 22:44:30 58° 260° (W) 620 3.4 -13.8°
Drops below altitude 10° 22:48:15 10° 340° (NNW) 1,760 5.5 -14.5°
Sets 22:50:22 0° 344° (NNW) 2,645 6.3 -14.9°
